Weather History for PASL - February, 2013

Change the Weather History Date:

Saturday, February 16, 2013

  Actual Average Record
Temperature  
Mean Temperature -12 °F -  
Max Temperature 1 °F 17 °F 42 °F (2001)
Min Temperature -25 °F 1 °F -27 °F (2008)
Degree Days  
Heating Degree Days 77    
Moisture  
Dew Point -18 °F    
Average Humidity 60    
Maximum Humidity 78    
Minimum Humidity 27    
Precipitation  
Precipitation 0.00 in - - ()
Sea Level Pressure  
Sea Level Pressure 30.07 in    
Wind  
Wind Speed 1 mph (NNW)    
Max Wind Speed 7 mph    
Max Gust Speed 18 mph    
Visibility 10 miles    
Events      
Averages and records for this station are not official NWS values.
T = Trace of Precipitation, MM = Missing Value Source: NWS Daily Summary

Daily Weather History Graph

Daily Weather History Graph

Search for Another Location

Airport or City:

Trip Planner

Search our weather history database for the weather conditions in past years. The results will help you decide how hot, cold, wet, or windy it might be!

Date:

Astronomy

Feb. 16, 2013 Rise Set
Actual Time 9:08 AM AKST 6:17 PM AKST
Civil Twilight 8:22 AM AKST 7:04 PM AKST
Nautical Twilight 7:31 AM AKST 7:55 PM AKST
Astronomical Twilight 6:40 AM AKST 8:46 PM AKST
Moon 10:17 AM AKST (2/16) 2:34 AM AKST (2/16)
Length of Visible Light 10h 41m
Length of Day
9h 09m
Waxing Crescent, 41% of the Moon is Illuminated
Feb 16
Waxing Crescent
Feb 17
First Quarter
Feb 25
Full
Mar 4
Last Quarter
Mar 11
New

Hourly Weather History & Observations

Time (AKST) Temp. Windchill Dew Point Humidity Pressure Visibility Wind Dir Wind Speed Gust Speed Precip Events Conditions
12:16 AM -9.4 °F - - N/A% 30.18 in 10.0 mi Calm Calm - N/A   Overcast
12:36 AM -9.4 °F - -27.4 °F 41% 30.18 in 10.0 mi Calm Calm - N/A   Overcast
12:56 AM -7.6 °F - -20.2 °F 54% 30.18 in 10.0 mi Calm Calm - N/A   Overcast
1:16 AM -9.4 °F - -18.4 °F 65% 30.17 in 10.0 mi Calm Calm - N/A   Overcast
1:36 AM -9.4 °F - -16.6 °F 71% 30.17 in 10.0 mi Calm Calm - N/A   Overcast
1:56 AM -7.6 °F - -16.6 °F 65% 30.18 in 10.0 mi Calm Calm - N/A   Overcast
2:16 AM -7.6 °F - -16.6 °F 65% 30.17 in 10.0 mi Calm Calm - N/A   Overcast
2:36 AM -7.6 °F - -14.8 °F 71% 30.17 in 10.0 mi Calm Calm - N/A   Overcast
2:56 AM -7.6 °F - -16.6 °F 65% 30.17 in 10.0 mi Calm Calm - N/A   Overcast
3:36 AM -9.4 °F - -18.4 °F 65% 30.18 in 10.0 mi Calm Calm - N/A   Overcast
3:56 AM -11.2 °F - -22.0 °F 59% 30.18 in 10.0 mi Calm Calm - N/A   Overcast
4:16 AM -11.2 °F - -18.4 °F 70% 30.18 in 10.0 mi Calm Calm - N/A   Overcast
4:36 AM -11.2 °F - -23.8 °F 54% 30.18 in 10.0 mi Calm Calm - N/A   Overcast
4:56 AM -11.2 °F - -18.4 °F 70% 30.17 in 10.0 mi Calm Calm - N/A   Overcast
5:16 AM -11.2 °F - -22.0 °F 59% 30.17 in 10.0 mi Calm Calm - N/A   Overcast
5:36 AM -13.0 °F - -18.4 °F 77% 30.17 in 10.0 mi Calm Calm - N/A   Overcast
5:56 AM -14.8 °F - -25.6 °F 58% 30.16 in 10.0 mi Calm Calm - N/A   Mostly Cloudy
6:16 AM -14.8 °F - -23.8 °F 64% 30.16 in 10.0 mi Calm Calm - N/A   Mostly Cloudy
6:36 AM -16.6 °F - -27.4 °F 58% 30.16 in 10.0 mi Calm Calm - N/A   Scattered Clouds
7:16 AM -18.4 °F - -27.4 °F 63% 30.15 in 10.0 mi Calm Calm - N/A   Clear
7:36 AM -20.2 °F - - N/A% 30.15 in 10.0 mi Calm Calm - N/A   Clear
7:56 AM -22.0 °F - - N/A% 30.15 in 10.0 mi Calm Calm - N/A   Clear
8:36 AM -23.8 °F - - N/A% 30.14 in 10.0 mi Calm Calm - N/A   Clear
8:56 AM -23.8 °F - - N/A% 30.14 in 10.0 mi Calm Calm - N/A   Clear
9:16 AM -25.6 °F - - N/A% 30.13 in 10.0 mi Calm Calm - N/A   Clear
9:36 AM -25.6 °F - - N/A% 30.13 in 10.0 mi Calm Calm - N/A   Clear
9:56 AM -25.6 °F - - N/A% 30.12 in 10.0 mi Calm Calm - N/A   Clear
10:36 AM -22.0 °F - - N/A% 30.12 in 5.0 mi Calm Calm - N/A   Clear
10:56 AM -20.2 °F - -25.6 °F 76% 30.12 in 10.0 mi Calm Calm - N/A   Clear
11:16 AM -20.2 °F - -29.2 °F 63% 30.12 in 10.0 mi Calm Calm - N/A   Clear
11:36 AM -16.6 °F - -23.8 °F 70% 30.12 in 10.0 mi Calm Calm - N/A   Clear
11:56 AM -16.6 °F - -25.6 °F 64% 30.11 in 10.0 mi Calm Calm - N/A   Clear
12:16 PM -13.0 °F - -18.4 °F 77% 30.11 in 10.0 mi Calm Calm - N/A   Clear
12:36 PM -11.2 °F - -22.0 °F 59% 30.10 in 10.0 mi Calm Calm - N/A   Clear
12:56 PM -11.2 °F - -22.0 °F 59% 30.09 in 10.0 mi Calm Calm - N/A   Clear
1:16 PM -9.4 °F - -20.2 °F 59% 30.09 in 10.0 mi Calm Calm - N/A   Clear
1:36 PM -11.2 °F - -23.8 °F 54% 30.08 in 9.0 mi Calm Calm - N/A   Clear
2:16 PM -7.6 °F - -22.0 °F 50% 30.06 in 10.0 mi Calm Calm - N/A   Clear
2:36 PM -7.6 °F - -14.8 °F 71% 30.05 in 9.0 mi Calm Calm - N/A   Clear
2:56 PM -5.8 °F - -18.4 °F 55% 30.05 in 10.0 mi Calm Calm - N/A   Clear
3:56 PM -0.4 °F - -11.2 °F 60% 30.01 in 10.0 mi Calm Calm - N/A   Clear
4:16 PM 1.4 °F - -7.6 °F 66% 29.99 in 10.0 mi Calm Calm - N/A   Clear
4:36 PM 1.4 °F - -9.4 °F 61% 29.98 in 10.0 mi Calm Calm - N/A   Clear
4:56 PM 1.4 °F - -14.8 °F 47% 29.98 in 10.0 mi Calm Calm - N/A   Clear
5:16 PM 1.4 °F - -7.6 °F 66% 29.97 in 10.0 mi Calm Calm - N/A   Clear
6:16 PM -0.4 °F - -9.4 °F 66% 29.96 in 10.0 mi Calm Calm - N/A   Partly Cloudy
6:36 PM -0.4 °F - -7.6 °F 72% 29.95 in 10.0 mi Calm Calm - N/A   Partly Cloudy
6:56 PM -0.4 °F -13.4 °F -16.6 °F 46% 29.95 in 10.0 mi NNW 6.9 mph - N/A   Clear
7:36 PM -0.4 °F - -5.8 °F 78% 29.95 in 10.0 mi Calm Calm - N/A   Scattered Clouds
7:56 PM -0.4 °F -13.4 °F -23.8 °F 32% 29.94 in 10.0 mi NNW 6.9 mph - N/A   Overcast
8:16 PM -0.4 °F -8.3 °F - N/A% 29.94 in 10.0 mi North 3.5 mph - N/A   Overcast
8:36 PM -0.4 °F -10.4 °F -23.8 °F 32% 29.94 in 10.0 mi NNW 4.6 mph - N/A   Mostly Cloudy
8:56 PM -0.4 °F -10.4 °F -23.8 °F 32% 29.94 in 10.0 mi NNW 4.6 mph - N/A   Mostly Cloudy
9:16 PM -0.4 °F -8.3 °F -27.4 °F 27% 29.94 in 10.0 mi NNW 3.5 mph - N/A   Overcast
9:36 PM -0.4 °F -12.0 °F -16.6 °F 46% 29.93 in 10.0 mi NNW 5.8 mph - N/A   Mostly Cloudy
9:56 PM -0.4 °F -10.4 °F -9.4 °F 66% 29.93 in 10.0 mi North 4.6 mph - N/A   Partly Cloudy
10:16 PM 1.4 °F -9.9 °F -7.6 °F 66% 29.93 in 10.0 mi NW 5.8 mph - N/A   Mostly Cloudy
10:36 PM 1.4 °F -9.9 °F -9.4 °F 61% 29.93 in 10.0 mi NNW 5.8 mph - N/A   Overcast
10:56 PM 1.4 °F -11.3 °F -9.4 °F 61% 29.92 in 10.0 mi NNW 6.9 mph - N/A   Overcast
11:36 PM 1.4 °F -11.3 °F -5.8 °F 72% 29.91 in 10.0 mi North 6.9 mph 18.4 mph N/A   Overcast
11:56 PM 1.4 °F -8.3 °F -9.4 °F 61% 29.92 in 10.0 mi NNW 4.6 mph - N/A   Overcast